#timestamp,LO_Frequency,Hit 
1503000015.8,286047002.4,N
1503000035.7,286047001.6,N
1503000055.5,286047003.9,N
1503000075.3,286047001.3,N
1503000095.2,286047005.4,P
1503000115.0,286047006.6,N
1503000115.9,286047006.6,N
1503000135.7,286047004.6,N
1503000155.6,286047003.0,N
1503000175.4,286047006.0,N
1503000195.2,286047003.9,N
1503000215.1,286047005.5,N
1503000216.0,286047005.5,N
1503000235.8,286047009.2,P
1503000255.7,286047002.6,N
1503000275.5,286047002.2,N
1503000295.3,286047004.1,N
1503000315.1,286047001.7,N
1503000335.9,286047006.0,N
1503000355.7,286047003.2,N
1503000375.5,286047003.6,N
1503000395.4,286047002.8,N
1503000415.2,286047000.1,N
1503000435.0,286046998.6,N
1503000435.9,286046998.6,N
1503000455.8,286046998.0,N
1503000475.6,286046999.1,N
1503000495.4,286046997.8,N
1503000515.3,286046996.7,N
1503000535.1,286047000.4,N
1503000536.0,286047000.4,N
1503000555.8,286047002.8,N
1503000575.7,286046998.6,N
1503000595.5,286047000.4,N
1503000615.3,286047000.4,N
1503000635.2,286046999.1,N
1503000655.9,286047001.1,N
1503000675.7,286047000.4,N
1503000695.6,286046998.6,N
1503000715.4,286046999.4,N
1503000735.2,286046996.8,N
1503000755.0,286046999.5,N
1503000755.9,286046999.5,N
1503000775.8,286046998.7,N
1503000795.6,286047000.8,N
1503000815.4,286047005.6,N
1503000835.3,286047006.3,N
1503000855.1,286047006.6,N
1503000875.8,286047007.9,N
1503000895.7,286047010.5,P
1503000915.5,286047010.1,N
1503000935.3,286047012.0,N
1503000955.2,286047011.4,N
1503000975.0,286047014.5,P
1503000975.9,286047014.5,P
1503000995.8,286047006.9,N
1503001015.6,286047005.0,N
1503001035.4,286047004.5,N
1503001055.2,286047006.6,N
1503001075.1,286047008.9,N
1503001076.0,286047008.9,N
1503001095.8,286047007.7,N
1503001115.6,286047007.9,N
1503001135.5,286047010.5,P
1503001155.3,286047000.3,N
1503001175.1,286047000.4,N
1503001195.9,286047000.3,N
1503001215.7,286047000.6,N
1503001235.5,286047000.6,N
1503001255.4,286047000.0,N
1503001275.2,286047002.7,N
1503001295.0,286047000.2,N
1503001295.9,286047000.2,N
1503001315.8,286047000.3,N
1503001335.6,286047000.2,N
1503001355.4,286047002.8,N
1503001375.3,286047002.3,N
1503001395.1,286047003.9,N
1503001396.0,286047003.9,N
1503001415.8,286047003.9,N
1503001435.7,286046998.2,N
1503001455.5,286046998.2,N
1503001475.3,286046995.8,N
1503001495.1,286046991.1,N
1503001515.9,286046987.9,P
1503001535.7,286046985.6,N
1503001555.6,286046985.5,N
1503001575.4,286046986.0,N
1503001595.2,286046988.3,N
1503001615.0,286046986.9,N
1503001616.0,286046986.9,N
1503001635.8,286046988.9,N
1503001655.6,286046988.6,N
1503001675.4,286046990.2,N
1503001695.3,286046988.6,N
1503001715.1,286046988.9,N
1503001735.9,286046987.2,P
1503001755.7,286046999.1,N
1503001775.5,286046996.5,N
1503001795.3,286046999.2,N
1503001815.2,286047000.9,N
1503001835.0,286047004.3,N
1503001835.9,286047004.3,N
1503001855.7,286047000.0,N
1503001875.6,286046999.0,N
1503001895.4,286046997.0,N
1503001915.2,286046999.4,N
1503001935.1,286046997.3,N
1503001936.0,286046997.3,N
1503001955.8,286046999.6,N
1503001975.6,286046998.4,N
1503001995.5,286047000.9,N
1503002015.3,286047003.7,N
1503002035.1,286047001.9,N
1503002055.9,286047000.1,N
1503002075.7,286047003.1,N
1503002095.5,286047007.6,N
1503002115.4,286047007.4,N
1503002135.2,286047008.6,N
1503002155.0,286047007.5,N
1503002155.9,286047007.5,N
1503002175.7,286047004.3,N
1503002195.6,286047004.3,N
1503002215.4,286047004.2,N
1503002235.2,286047003.6,N
1503002255.1,286047004.4,N
1503002256.0,286047004.4,N
1503002275.8,286047002.5,N
1503002295.6,286047000.3,N
1503002315.5,286047004.0,N
1503002335.3,286047005.5,N
1503002355.1,286047002.0,N
1503002375.9,286047005.9,N
1503002395.7,286047005.3,N
1503002415.5,286047004.2,N
1503002435.4,286047000.2,N
1503002455.2,286047000.8,N
1503002475.0,286047004.1,N
1503002475.9,286047004.1,N
1503002495.8,286047004.3,N
1503002515.6,286047000.2,N
1503002535.4,286047002.6,N
1503002555.3,286047003.6,N
1503002575.1,286047005.2,N
1503002576.0,286047005.2,N
1503002595.8,286047004.5,N
1503002615.7,286047007.3,P
1503002635.5,286047002.0,N
1503002655.3,286047005.9,N
1503002675.2,286047003.9,N
1503002695.9,286047003.1,N
1503002715.7,286047001.9,N
1503002735.6,286047000.5,N
1503002755.4,286046998.3,N
1503002775.2,286046998.9,N
1503002795.0,286046998.4,N
1503002795.9,286046998.4,N
1503002815.8,286047000.3,N
1503002835.6,286047001.0,N
1503002855.4,286046998.5,N
1503002875.3,286046999.4,N
1503002895.1,286047000.9,N
1503002915.8,286046999.4,N
1503002935.7,286046998.3,N
1503002955.5,286046996.5,N
1503002975.3,286046998.2,N
1503002995.2,286047001.3,N
1503003015.9,286047000.4,N
1503003035.7,286047002.3,N
1503003055.6,286047000.1,N
1503003075.4,286047002.0,N
1503003095.2,286047005.1,N
1503003115.0,286047004.0,N
1503003116.0,286047004.0,N
1503003135.8,286047004.3,N
1503003155.6,286047003.0,N
1503003175.5,286047005.2,N
1503003195.3,286047006.0,N
1503003215.1,286047004.2,N
1503003235.8,286047003.1,N
1503003255.7,286047003.0,N
1503003275.5,286047003.3,N
1503003295.3,286047005.9,N
1503003315.2,286047005.5,N
1503003335.9,286047001.3,N
1503003355.7,286047001.4,N
1503003375.6,286047000.8,N
1503003395.4,286046998.4,N
1503003415.2,286047000.4,N
1503003435.1,286047001.7,N
1503003436.0,286047001.7,N
1503003455.8,286046999.8,N
1503003475.6,286047002.7,N
1503003495.5,286046999.8,N
1503003515.3,286046998.5,N
1503003535.1,286046997.1,N
1503003555.9,286047001.1,N
1503003575.7,286047000.2,N
1503003595.5,286047004.8,N
